Regional Weather Roundup
Issued by NWS Grand Forks, ND

Home | Current Version | Previous Version | Graphics & Text | Print | Product List | Glossary On
Versions: 1 2 3 4 5 6 7 8 9 10 11 12 13 14 15 16 17 18 19 20 21 22 23 24 25 26 27 28 29 30 31 32 33 34 35 36 37 38 39 40 41 42 43 44 45 46 47 48 49 50
000
ASUS43 KFGF 100910
RWRFGF
PRAIRIE TO PINES  WEATHER ROUNDUP
NATIONAL WEATHER SERVICE EASTERN NORTH DAKOTA/GRAND FORKS ND
300 AM CST SAT DEC 10 2016

 **SATELLITE DATA USED TO AUGMENT SKY COVER AT AUTOMATED STATIONS**
 *****  WEATHER ACROSS EASTERN NORTH DAKOTA  *****

CITY           SKY/WX    TMP DP  RH WIND       PRES   REMARKS
GRAND FORKS    CLOUDY    -3  -9  75 NW6       30.54F WCI -15
GRAND FRKS AFB CLOUDY    -4  -9  77 NW6       30.54S WCI -16
DEVILS LAKE    CLOUDY   -16 -20  82 CALM      30.47F
FARGO          CLOUDY    -7 -13  75 CALM      30.54F
WAHPETON ARPT  CLOUDY    -8 -15  71 N6        30.53F WCI -21
$$

 ***** WEATHER ACROSS CENTRAL AND WESTERN NORTH DAKOTA  *****

CITY           SKY/WX    TMP DP  RH WIND       PRES   REMARKS
BISMARCK       CLOUDY   -14 -19  79 E3        30.47F
MINOT          CLOUDY   -16 -20  82 CALM      30.42F
JAMESTOWN      CLOUDY   -15 -19  82 NW6       30.48R WCI -29
MINOT AFB      CLOUDY   -23 -29  72 W2        30.42F
GARRISON         N/A    -18 -23  77 N5        30.41S WCI -31
WILLISTON      CLOUDY   -15 -20  78 N5        30.37F WCI -27
DICKINSON      CLOUDY   -10 -16  74 E6        30.26F WCI -23
HETTINGER      CLOUDY    -6 -10  83 SE8       30.27F WCI -21
$$

 *****  OTHER AIRPORT OBSERVATIONS IN OUR AREA  *****

CITY           SKY/WX    TMP DP  RH WIND       PRES   REMARKS
WALHALLA         N/A    -13 -13 100 CALM      30.54S
GRAFTON AIRPOR FAIR      -8 -15  71 NW6       30.57F WCI -21
VALLEY CITY AR FAIR     -17 -20  83 NW8       30.50S WCI -34
CANDO          FAIR     -17 -20  83 CALM      30.49S
CAVALIER APRT    N/A    N/A N/A N/A W7        30.54F
GWINNER        FAIR      -9 -15  77 NW7       30.51R WCI -24
SHEYENNE NWR     N/A    -15 -23  67 CALM      29.95S
ROLLA          FAIR     -22 -27  76 W5        30.41S WCI -36
 ***** THE ABOVE OBSERVATIONS ARE NON NWS ARE NOT QUALITY
       CONTROLLED AND MAY MIS-REPORT RAIN FOR SNOW...
$$

  *****  WEATHER ACROSS NORTHERN MINNESOTA  *****

CITY           SKY/WX    TMP DP  RH WIND       PRES   REMARKS
FLAG ISLAND    PTCLDY    -6  -9  84 W12       30.44S WCI -24
WARROAD        CLOUDY   -11 -17  77 SW3       30.47S
ROSEAU         CLOUDY    -8 -15  71 W5        30.49R WCI -19
HALLOCK        CLOUDY    -8 -13  77 NW5       30.54S WCI -19
THF RVR FALLS  FLURRIES  -7 -12  79 W3        30.51R
BAUDETTE       CLEAR     -8 -13  78 W7        30.44S WCI -23
WASKISH        MOCLDY     0  -6  78 NW8       30.45F WCI -15
CROOKSTON      CLOUDY    -2  -6  84 N8        30.54F WCI -17
GREENBUSH NDAW   N/A    -15 -18  84 W3          N/A
$$
  *****  WEATHER ACROSS CENTRAL AND WEST MINNESOTA  *****

CITY           SKY/WX    TMP DP  RH WIND       PRES   REMARKS
FOSSTON        CLOUDY   -11 -17  77 CALM      30.48S
BEMIDJI        CLEAR     -8 -11  83 W5        30.44F WCI -19
PARK RAPIDS    CLOUDY    -5 -12  72 W6        30.44F WCI -18
ELBOW LAKE     FAIR      -9 -12  83 W6        30.50F WCI -22
WADENA         CLOUDY    -6  -9  84 N3        30.46F
DETROIT LAKES  CLOUDY    -8 -11  84 NW5       30.48S FOG     WCI -19
MOORHEAD       CLOUDY    -8 -13  77 CALM      30.54F
FERGUS FALLS   CLOUDY   -11 -17  77 CALM      30.57F
MORRIS MN      CLOUDY    -6  -9  84 NW3       30.50F
STAPLES        NOT AVBL
$$
  *****  WEATHER ELSEWHERE ACROSS MINNESOTA  *****

CITY           SKY/WX    TMP DP  RH WIND       PRES   REMARKS
DULUTH         CLOUDY     5  -2  72 NW9       30.40S WCI  -9
INTRNTL FALLS  CLEAR     -6 -10  83 W8        30.43S WCI -21
ELY            CLEAR     -4  -8  84 W7        30.39S WCI -18
CLOQUET        CLOUDY     7  -2  66 NW7       30.41F WCI  -5
WHEATON        CLOUDY    -6 -11  77 W5        30.56S WCI -17
BRAINERD       CLOUDY     2  -4  76 NW6       30.46S WCI  -9
HIBBING        LGT SNOW   0  -5  79 N7        30.42S WCI -13
ALEXANDRIA     CLOUDY    -4  -8  83 W7        30.48R WCI -18
SAINT CLOUD    CLEAR      1  -3  83 W7        30.50R WCI -12
MINNEAPOLIS    CLEAR      6  -1  73 W10       30.52R WCI  -9
$$

  *****  WEATHER ACROSS SOUTH DAKOTA  *****

CITY           SKY/WX    TMP DP  RH WIND       PRES   REMARKS
SIOUX FALLS    CLOUDY    10   6  84 NE5       30.46R WCI   2
BROOKINGS      CLOUDY     3  -2  79 NE3       30.45R
WATERTOWN      CLOUDY    -4  -7  87 N3        30.43S
HURON          CLOUDY     0  -4  83 N7        30.49F WCI -13
SISSETON         N/A     -9 -14  78 N7        30.51F WCI -24
ABERDEEN       CLOUDY    -7 -15  68 N8        30.52S WCI -23
MITCHELL       PTCLDY     7   2  80 N6        30.49F WCI  -3
PIERRE         CLOUDY    -2  -8  76 E8        30.41F WCI -17
MOBRIDGE       CLOUDY    -5 -12  72 E7        30.41S WCI -19
RAPID CITY     LGT SNOW   3  -2  79 SE16      30.16F WCI -16
$$

  *****  SOME WEATHER IN NEARBY STATES *****

CITY           SKY/WX    TMP DP  RH WIND       PRES   REMARKS
GLASGOW MT     CLOUDY    -5 -10  79 E15       30.20F WCI -26
GREAT FALLS MT CLOUDY     1  -4  79 CALM      29.90F
CHEYENNE WY    CLOUDY    26  20  77 S8        29.98F WCI  18
SCOTTSBLUFF NE CLOUDY    14   7  73 E16       30.04F WCI  -2
OMAHA NE       CLOUDY    23  13  65 SE5       30.47F WCI  17
DES MOINES IA  CLOUDY    23  12  62 CALM      30.51S
DAVENPORT IA   CLOUDY    19  14  81 W6        30.54R WCI  11
CHICAGO IL     CLOUDY    19  11  70 W8        30.50S WCI   9
EAU CLAIRE WI  CLOUDY    12   5  73 W7        30.46S WCI   1
LA CROSSE WI   PTCLDY    13   5  70 W9        30.51R WCI   1
$$

  *****  SOME NATIONAL WEATHER *****

CITY           SKY/WX    TMP DP  RH WIND       PRES   REMARKS
LA GUARDIA NY  CLEAR     31  16  54 NW13      30.32S WCI  21
RALEIGH NC     CLEAR     23  14  68 CALM      30.51F
ATLANTA GA     CLEAR     28  18  66 NW7       30.46S WCI  21
NEW ORLEANS LA CLEAR     42  28  57 E10G17    30.52R
OKLAHOMA CITY  CLOUDY    33  18  53 S8        30.41S
ALBUQUERQUE NM CLOUDY    31  24  75 NE3       30.28S
SALT LAKE CITY CLOUDY    32  30  92 NW6       30.01F FOG
LOS ANGELES CA CLOUDY    59  56  89 E8        30.16F FOG
BOISE ID       CLOUDY    32  31  96 W5        29.93F FOG
SEATTLE WA     CLOUDY    37  36  96 SE12      29.82S
$$

*** WEATHER ACROSS MANITOBA...SASKATCHEWAN AND ONTARIO ***
                ***ONTARIO***

CITY           SKY/WX    TMP DP  RH WIND       PRES   REMARKS
GERALDTON      FLURRIES  -4  -8  84 W3        30.29S
THUNDER BAY    FLURRIES  10   1  67 NW7       30.39S WCI   0
SIOUX LOOKOUT  FLURRIES  -6  -9  84 N6        30.35S WCI -18
TORONTO        CLOUDY    21  14  73 NW2       30.31F
BIG TROUT LK   FLURRIES  -8 -11  84 NW9       30.37S WCI -25
PICKLE LAKE    NOT AVBL
DRYDEN         CLEAR     -8 -11  84 W5        30.36F WCI -19
KENORA         CRYSTALS  -8 -11  84 N3        30.40S
$$
                *** MANITOBA***

CITY           SKY/WX    TMP DP  RH WIND       PRES   REMARKS
BRANDON        CLEAR    -20 -26  76 W7        30.47S WCI -37
DAUPHIN        CLEAR    -26 -31  75 W8        30.48F WCI -45
ISLAND LAKE    NOT AVBL
PILOT MOUND      N/A    -20 -26  76 SW5         N/A  WCI -33
THE PAS        FLURRIES  -8 -13  77 VRB2      30.46F
THOMPSON       CLOUDY    -6 -11  77 SW3       30.43F
WINNIPEG       MOCLDY   -11 -15  84 W8        30.52F WCI -28
LYNN LAKE      FLURRIES  -6  -9  84 SW5       30.34F WCI -17
CHURCHILL      PTCLDY   -11 -18  70 W13G20    30.34F WCI -32
GILLAM         CLEAR    -11 -17  77 W9        30.41F WCI -29
$$
                ***SASKATCHEWAN***

CITY           SKY/WX    TMP DP  RH WIND       PRES   REMARKS
ESTEVAN        PTCLDY   -18 -24  76 S2        30.38F
KINDERSLEY     PTCLDY    -9 -15  77 E13       30.18F WCI -30
LLOYDMINSTER   CLEAR    -17 -22  76 SE3       30.22F
PRINCE ALBERT  CRYSTALS -22 -27  76 CALM      30.39F
REGINA         MOCLDY   -13 -18  77 SE8       30.35F WCI -30
YORKTON        CLEAR    -15 -20  76 SW6       30.40S WCI -29
N. BATTLEFORD  CLEAR    -17 -22  76 E7        30.33F WCI -33
LA RONGE       PTCLDY   -22 -27  76 CALM      30.39F
SASKATOON      CRYSTALS -11 -17  77 S5        30.36F WCI -23
SWIFT CURRENT  CLOUDY    -2  -6  84 SE16      30.11F WCI -23
$$
NOTE: THESE ARE AUTOMATED STATIONS WITH LIMITED QUALITY CONTROL
      "FAIR" INDICATES FEW OR NO CLOUDS BELOW 12,000 FEET WITH NO
      SIGNIFICANT WEATHER AND/OR OBSTRUCTIONS TO VISIBILITY.
      SKY/WX - SKY CONDITION AND SIGNIFICANT WEATHER.
      TMP - AIR TEMPERATURE.    DP   - DEWPOINT TEMPERATURE.
      RH  - RELATIVE HUMIDITY.  PRES - PRESSURE.
      HX  - HEAT INDEX.         WCI  - WIND CHILL INDEX.
$




USA.gov is the U.S. government's official web portal to all federal, state and local government web resources and services.